Pinedale, WY

11:19 AM MDT on April 22, 2018 (GMT -0600)
Wenz

Weather History for KPNA - November, 2011

Change the Weather History Date:

Tuesday, November 22, 2011

  Actual Average (KBPI) Record (KBPI)
Temperature  
Mean Temperature 19 °F -  
Max Temperature 29 °F 32 °F 56 °F (2014)
Min Temperature 9 °F 7 °F -17 °F (2013)
Degree Days  
Heating Degree Days 46    
Moisture  
Dew Point 22 °F    
Average Humidity 91    
Maximum Humidity 99    
Minimum Humidity 81    
Precipitation  
Precipitation 0.00 in - - ()
Sea Level Pressure  
Sea Level Pressure 30.24 in    
Wind  
Wind Speed 1 mph (WNW)    
Max Wind Speed 6 mph    
Max Gust Speed -    
Visibility 7 miles    
Events Fog    
Averages and records for this station are not official NWS values.
T = Trace of Precipitation, MM = Missing Value Source: NWS Daily Summary

Daily Weather History Graph

Daily Weather History Graph

Search for Another Location

Airport or City:

Astronomy

Nov. 22, 2011 Rise Set
Actual Time 7:19 AM MST 4:50 PM MST
Civil Twilight 6:48 AM MST 5:21 PM MST
Nautical Twilight 6:13 AM MST 5:56 PM MST
Astronomical Twilight 5:40 AM MST 6:30 PM MST
Moon 4:11 AM MST 2:54 PM MST
Length of Visible Light 10h 33m
Length of Day
9h 31m
Waning Crescent, 9% of the Moon is Illuminated
Nov 22
Waning Crescent
Nov 24
New
Dec 2
First Quarter
Dec 10
Full
Dec 17
Last Quarter

Hourly Weather History & Observations

Time (MST) Temp. Windchill Dew Point Humidity Pressure Visibility Wind Dir Wind Speed Gust Speed Precip Events Conditions
12:15 AM - - - N/A% 30.19 in 0.2 mi Calm Calm - N/A Fog Fog
12:35 AM - - - N/A% 30.19 in 0.2 mi Calm Calm - N/A Fog Fog
12:55 AM - - - N/A% 30.21 in 0.2 mi Calm Calm - N/A Fog Fog
1:15 AM - - - N/A% 30.21 in 0.2 mi ESE 3.5 mph - N/A Fog Fog
1:35 AM - - - N/A% 30.21 in 0.2 mi ESE 3.5 mph - N/A Fog Fog
1:55 AM - - - N/A% 30.21 in 0.2 mi Calm Calm - N/A Fog Fog
2:15 AM - - - N/A% 30.21 in 0.2 mi Calm Calm - N/A Fog Fog
2:35 AM - - - N/A% 30.21 in 0.2 mi Calm Calm - N/A Fog Fog
2:55 AM - - - N/A% 30.21 in 0.5 mi West 3.5 mph - N/A Fog Fog
3:15 AM - - - N/A% 30.21 in 0.2 mi Calm Calm - N/A   Unknown
3:35 AM - - - N/A% 30.21 in 0.2 mi Calm Calm - N/A Fog Fog
3:55 AM - - - N/A% 30.21 in 0.2 mi West 3.5 mph - N/A Fog Fog
4:15 AM - - - N/A% 30.21 in 0.2 mi West 3.5 mph - N/A Fog Fog
4:55 AM - - - N/A% 30.22 in 0.5 mi Calm Calm - N/A   Unknown
5:15 AM - - - N/A% 30.22 in 0.2 mi NW 3.5 mph - N/A   Unknown
5:35 AM - - - N/A% 30.22 in 1.0 mi Calm Calm - N/A   Overcast
5:55 AM - - - N/A% 30.23 in 1.5 mi WNW 3.5 mph - N/A   Overcast
6:15 AM - - - N/A% 30.23 in 7.0 mi West 3.5 mph - N/A   Overcast
6:35 AM - - - N/A% 30.21 in 10.0 mi Calm Calm - N/A   Overcast
6:55 AM - - - N/A% 30.21 in 10.0 mi Calm Calm - N/A   Overcast
7:15 AM - - - N/A% 30.21 in 10.0 mi Calm Calm - N/A   Overcast
7:35 AM - - - N/A% 30.21 in 4.0 mi Calm Calm - N/A   Haze
7:55 AM - - - N/A% 30.23 in 0.5 mi Calm Calm - N/A Fog Fog
8:15 AM - - - N/A% 30.24 in 3.0 mi Calm Calm - N/A   Mostly Cloudy
8:35 AM 9.1 °F - 8.1 °F 95% 30.25 in 10.0 mi Calm Calm - N/A   Overcast
8:55 AM 10.8 °F - 9.5 °F 95% 30.25 in 7.0 mi Calm Calm - N/A   Overcast
9:15 AM 12.4 °F - 11.3 °F 95% 30.25 in 7.0 mi Calm Calm - N/A   Scattered Clouds
9:35 AM 13.8 °F - 13.1 °F 97% 30.25 in 10.0 mi Calm Calm - N/A   Mostly Cloudy
9:55 AM 18.3 °F - 18.0 °F 98% 30.25 in 10.0 mi Calm Calm - N/A   Overcast
10:15 AM 18.0 °F - 16.7 °F 95% 30.26 in 10.0 mi Calm Calm - N/A   Overcast
10:35 AM 20.5 °F 15.6 °F 19.6 °F 96% 30.26 in 10.0 mi ENE 3.5 mph - N/A   Overcast
10:55 AM 22.3 °F - 20.8 °F 94% 30.25 in 7.0 mi Calm Calm - N/A   Overcast
11:15 AM 23.2 °F - 21.9 °F 95% 30.25 in 10.0 mi Calm Calm - N/A   Overcast
11:35 AM 23.4 °F - 21.7 °F 94% 30.24 in 10.0 mi Calm Calm - N/A   Overcast
11:55 AM 24.6 °F - 22.8 °F 93% 30.24 in 10.0 mi Calm Calm - N/A   Overcast
12:15 PM 25.3 °F - 23.0 °F 91% 30.24 in 10.0 mi Calm Calm - N/A   Overcast
12:35 PM 25.3 °F - 22.8 °F 90% 30.23 in 10.0 mi Calm Calm - N/A   Overcast
12:55 PM 26.8 °F - 24.3 °F 90% 30.23 in 10.0 mi Calm Calm - N/A   Overcast
1:15 PM 28.2 °F - 25.2 °F 88% 30.23 in 10.0 mi Calm Calm - N/A   Overcast
1:35 PM 27.5 °F 23.6 °F 24.6 °F 89% 30.23 in 10.0 mi NNE 3.5 mph - N/A   Overcast
1:55 PM 27.5 °F - 24.1 °F 87% 30.23 in 10.0 mi Calm Calm - N/A   Overcast
2:15 PM 28.4 °F - 23.9 °F 83% 30.24 in 10.0 mi Calm Calm - N/A   Overcast
2:35 PM 28.8 °F - 24.1 °F 83% 30.22 in 10.0 mi Calm Calm - N/A   Mostly Cloudy
2:55 PM 29.1 °F - 24.1 °F 81% 30.23 in 10.0 mi Calm Calm - N/A   Scattered Clouds
3:15 PM 28.4 °F - 24.1 °F 84% 30.24 in 10.0 mi Calm Calm - N/A   Mostly Cloudy
3:35 PM 28.6 °F - 24.3 °F 84% 30.24 in 10.0 mi Calm Calm - N/A   Mostly Cloudy
3:55 PM 29.3 °F - 25.2 °F 85% 30.24 in 10.0 mi Calm Calm - N/A   Mostly Cloudy
4:15 PM 28.4 °F - 24.6 °F 86% 30.25 in 10.0 mi Calm Calm - N/A   Mostly Cloudy
4:35 PM 28.4 °F - 25.2 °F 88% 30.26 in 10.0 mi Calm Calm - N/A   Mostly Cloudy
4:55 PM 28.0 °F 22.8 °F 25.3 °F 90% 30.27 in 10.0 mi NW 4.6 mph - N/A   Overcast
5:15 PM 27.9 °F - 25.5 °F 91% 30.27 in 10.0 mi Calm Calm - N/A   Overcast
5:35 PM 27.7 °F - 25.7 °F 92% 30.27 in 10.0 mi Calm Calm - N/A   Overcast
5:55 PM 27.3 °F - 24.8 °F 90% 30.29 in 10.0 mi Calm Calm - N/A   Overcast
6:15 PM 27.3 °F 23.4 °F 25.3 °F 92% 30.29 in 10.0 mi West 3.5 mph - N/A   Overcast
6:35 PM 27.1 °F - 25.0 °F 92% 30.29 in 10.0 mi Calm Calm - N/A   Overcast
6:55 PM 26.1 °F 21.9 °F 24.3 °F 93% 30.28 in 10.0 mi West 3.5 mph - N/A   Overcast
7:15 PM 23.9 °F 16.8 °F 22.8 °F 96% 30.28 in 10.0 mi West 5.8 mph - N/A   Scattered Clouds
7:35 PM 21.9 °F 15.7 °F 21.7 °F 99% 30.28 in 10.0 mi WNW 4.6 mph - N/A   Mostly Cloudy
8:15 PM 20.3 °F 15.4 °F 19.9 °F 99% 30.28 in 10.0 mi NW 3.5 mph - N/A   Clear
8:35 PM 19.8 °F 10.8 °F 19.0 °F 97% 30.29 in 10.0 mi West 6.9 mph - N/A   Clear
8:55 PM 17.4 °F 7.1 °F 16.7 °F 97% 30.30 in 10.0 mi WNW 8.1 mph - N/A   Clear
9:15 PM 17.4 °F 7.1 °F 16.9 °F 98% 30.29 in 10.0 mi WNW 8.1 mph - N/A   Clear
9:35 PM 17.8 °F 8.5 °F 17.6 °F 99% 30.29 in 10.0 mi West 6.9 mph - N/A   Clear
9:55 PM 16.7 °F 8.3 °F 16.3 °F 98% 30.29 in 10.0 mi West 5.8 mph - N/A   Clear
10:15 PM 16.0 °F 10.4 °F 16.0 °F 100% 30.29 in 10.0 mi NW 3.5 mph - N/A   Scattered Clouds
10:35 PM 16.5 °F 9.4 °F 16.2 °F 98% 30.29 in 10.0 mi NNW 4.6 mph - N/A   Scattered Clouds
10:55 PM 15.1 °F 5.2 °F 14.9 °F 99% 30.29 in 10.0 mi NW 6.9 mph - N/A   Scattered Clouds
11:15 PM 13.8 °F 8.0 °F 13.8 °F 100% 30.29 in 10.0 mi NW 3.5 mph - N/A   Mostly Cloudy
11:35 PM 13.1 °F 7.1 °F 13.1 °F 100% 30.29 in 10.0 mi NW 3.5 mph - N/A   Mostly Cloudy
11:55 PM 15.3 °F - 15.4 °F 100% 30.29 in 10.0 mi Calm Calm - N/A   Mostly Cloudy